Tracking 19638 objects as of 19-Apr-2019
HD Live streaming from Space Station
objects crossing your sky now

SL-16 DEB

Track SL-16 DEB now!
10-day predictions


NORAD ID: 39900
Int'l Code: 1993-016CA
Perigee: 703.3 km
Apogee: 820.3 km
Inclination: 70.9 °
Period: 99.9 minutes
Semi major axis: 7132 km
RCS: 0.0139 m2 (small)
Launch date: March 26, 1993
Source: Commonwealth of Independent States (former USSR) (CIS)
Launch site: TYURATAM MISSILE AND SPACE COMPLEX (TTMTR)

Note: This is SATELLITE DEBRIS
aabbcc
Your satellite tracking list
Your tracking list is empty




NASA's NSSDC Master Catalog

Two Line Element Set (TLE):
1 39900U 93016CA  19093.32801408  .00002043  00000-0  62405-3 0  9997
2 39900  70.9365  94.8065 0082015 352.3775   7.6107 14.41163292831032
Source of the keplerian elements: AFSPC